This is the latest recevied weather packets stored in our database for station/object EA7KZ-10. If no packets are shown the sender has not sent any weather packets the latest 10 day(s).
| Time | Temp. | Humidity | Pressure | Rain* | Wind** | Luminosity | Snow |
|---|---|---|---|---|---|---|---|
| 1778235882 | 19.44° C | 49% | 1012.3 hPa | - | - | - | - |
| 1778235282 | 19.44° C | 51% | 1012.3 hPa | - | - | - | - |
| 1778234082 | 19.44° C | 50% | 1012.1 hPa | - | - | - | - |
| 1778233482 | 19.44° C | 50% | 1011.9 hPa | - | - | - | - |
| 1778232882 | 19.44° C | 49% | 1011.9 hPa | - | - | - | - |
| 1778232282 | 19.44° C | 47% | 1012.1 hPa | - | - | - | - |
| 1778231681 | 19.44° C | 48% | 1012 hPa | - | - | - | - |
| 1778231082 | 19.44° C | 48% | 1012 hPa | - | - | - | - |
| 1778230482 | 19.44° C | 47% | 1011.7 hPa | - | - | - | - |
| 1778229882 | 19.44° C | 48% | 1011.7 hPa | - | - | - | - |
| 1778229281 | 19.44° C | 48% | 1011.7 hPa | - | - | - | - |
| 1778228682 | 18.89° C | 49% | 1011.8 hPa | - | - | - | - |
| 1778228082 | 18.89° C | 49% | 1011.7 hPa | - | - | - | - |
| 1778226882 | 18.89° C | 51% | 1011.8 hPa | - | - | - | - |
| 1778226282 | 18.33° C | 51% | 1012 hPa | - | - | - | - |
| 1778225682 | 18.33° C | 52% | 1012.2 hPa | - | - | - | - |
| 1778225082 | 17.78° C | 52% | 1012.2 hPa | - | - | - | - |
| 1778224482 | 17.78° C | 53% | 1012.3 hPa | - | - | - | - |
| 1778223882 | 17.22° C | 54% | 1012.4 hPa | - | - | - | - |
| 1778223281 | 16.67° C | 57% | 1012.5 hPa | - | - | - | - |
| 1778222682 | 16.11° C | 59% | 1012.5 hPa | - | - | - | - |
| 1778222081 | 15.56° C | 60% | 1012.3 hPa | - | - | - | - |
| 1778221482 | 15.56° C | 60% | 1012.3 hPa | - | - | - | - |
| 1778220281 | 15.56° C | 60% | 1012.3 hPa | - | - | - | - |
| 1778219681 | 15.56° C | 60% | 1012.4 hPa | - | - | - | - |
* Rain since midnight (hover to see other rain measurements)
** Current wind speed in m/s (hover to see current wind gust speed)